OKEAN-0
1 25860U 99039A 12124.87059330 .00000570 00000-0 93788-4 0 6174
2 25860 097.9319 088.4321 0001849 051.8369 308.3004 14.74174263688044
NOAA-16
1 26536U 00055A 12123.56855283 -.00000041 00000-0 25944-5 0 07323
2 26536 099.0992 164.9773 0010206 208.1936 151.8689 14.12730914598593
NOAA-17
1 27453U 02032A 12123.71561313 .00000001 00000-0 18282-4 0 06908
2 27453 098.3402 153.0423 0010763 292.2490 067.7545 14.24423518512288
NOAA-18
1 28654U 05018A 12123.77449752 .00000229 00000-0 15101-3 0 01652
2 28654 099.0421 081.4936 0013480 283.8183 076.1453 14.11643073358150
NOAA-19
1 33591U 09005A 12123.77223179 -.00000047 00000-0 -20068-5 0 03574
2 33591 098.8613 064.1300 0014304 145.8556 214.3542 14.11328053166606
HUBBLE
1 20580U 90037B 12123.15796131 .00000947 00000-0 57246-4 0 9927
2 20580 028.4688 084.7353 0003329 282.7553 077.2543 15.02426303 7801
ISS
1 25544U 98067A 12125.08603553 .00011866 00000-0 16342-3 0 4896
2 25544 051.6438 342.9169 0009550 315.3885 122.7613 15.57669224771144
CO-58
1 28895U 05043F 12124.82865642 .00000339 00000-0 78824-4 0 1658
2 28895 097.9227 353.0386 0016535 291.6668 068.2777 14.60587180347186
FALCON
1 30776U 07006E 12123.62104176 .00003800 00000-0 24965-3 0 03547
2 30776 035.4349 195.0926 0002175 302.8298 057.2209 15.07239384283372
MAST
1 31126U 07012K 12124.90898644 .00000564 00000-0 13641-3 0 4483
2 31126 097.8763 138.5996 0092709 248.6555 110.4731 14.54125087267838
CAPE1
1 31130U 07012P 12124.70099925 .00000559 00000-0 13787-3 0 4598
2 31130 097.8839 134.8117 0100115 262.3293 096.6509 14.52892588267310
COMPASS
1 32787U 08021E 12123.62120748 .00002271 00000-0 27978-3 0 02921
2 32787 097.8026 185.9608 0014688 206.1886 153.8583 14.83828541217058
AAUSAT2
1 32788U 08021F 12124.81410132 .00002191 00000-0 26822-3 0 2831
2 32788 097.8053 187.4846 0014251 200.9564 159.1048 14.84139445217257
DO-64
1 32789U 08021G 12123.75936439 .00003603 00000-0 42272-3 0 03014
2 32789 097.8159 188.3071 0014388 202.7509 157.3021 14.85500964217132
CO-66
1 32791U 08021J 12123.66080132 .00001496 00000-0 18899-3 0 02832
2 32791 097.8027 185.7773 0015234 204.3836 155.6667 14.83273977216990
RS-30
1 32953U 08025A 12124.61897675 .00000010 00000-0 00000 0 0 7477
2 32953 082.5013 322.8610 0019667 046.8677 313.4041 12.43022956179021
TACSAT-3
1 35001U 09028A 12121.72616188 .15204951 73582-5 42606-3 0 00016
2 35001 040.4259 351.8840 0007146 275.2650 085.0693 16.45157000166990
PHARMSAT
1 35002U 09028B 12124.89088708 .00080998 00000-0 50429-3 0 8870
2 35002 040.4650 349.2312 0006128 266.3474 093.6651 15.75865552167311
METEOR-M
1 35865U 09049A 12124.81608747 .00000008 00000-0 23252-4 0 3787
2 35865 098.6583 179.9643 0002457 160.2227 199.9040 14.21861082136291
RS-38
1 35869U 09049E 12124.77337353 .00000036 00000-0 35750-4 0 3875
2 35869 098.6542 179.9254 0004548 170.6375 189.4886 14.22067030136306
JUGNU
1 37839U 11058B 12124.58066929 .00000619 00000-0 19019-3 0 1418
2 37839 019.9607 268.4937 0018855 088.8523 271.3979 14.12048722 28935
SRMSAT
1 37841U 11058D 12124.78678427 .00000264 00000-0 00000 0 0 1428
2 37841 019.9745 271.2223 0011139 061.2528 298.9144 14.10134668 28919
RAX-2
1 37853U 11061D 12123.95477718 .00004821 00000-0 38892-3 0 01778
2 37853 101.7158 143.5585 0249112 119.9210 242.6981 14.79538602027718
AUBIESAT
1 37854U 11061E 12124.79962586 .00004664 00000-0 37057-3 0 1681
2 37854 101.7185 144.9774 0250449 116.8937 245.8094 14.79901000 27829
HRBE
1 37855U 11061F 12124.80925111 .00004533 00000-0 36220-3 0 1672
2 37855 101.7191 144.9603 0250191 116.9367 245.7622 14.79774256 27827
RS-39
1 38051U 11062C 12124.85726972 .00006991 00000-0 30188-3 0 3029
2 38051 051.6310 010.9781 0010526 237.5295 198.8815 15.23540625 15210
E-STAR
1 38079U 12006C 12124.87187831 .00039192 00000-0 95014-3 0 1964
2 38079 069.5050 056.7849 0755793 303.7276 049.3859 14.12557633 11329
GOLIAT
1 38085U 12006J 12124.83391227 .00035221 00000-0 87998-3 0 1852
2 38085 069.4849 056.9883 0757240 303.7440 049.3635 14.11652581 11311
